[[{"header":{"parameterUnit":"m.s-1","parameterCategory":1,"la1":30.2991,"la2":30.254,"lo1":-89.0895,"lo2":-89.0444,"dy":0.0017,"dx":0.0017,"nx":28,"ny":28,"refTime":"2024-07-22T09:00:00:Z","depth":0,"parameterNumber":2,"parameterNumberName":"U-component_of_WINDS"},"data":[0,0,0,0,0,0,0,0,0,0,0,0,0,0,0,0,0,0,0,0,0,0,0,0,0,0,0,0,0,0,0,0,0,0,0,0,0,0,0,0,0,0,0,0,0,0,0,0,0,0,0,0,0,0,0,0,0,0,-0.4809,-0.4809,0,-0.4813,-0.4813,-0.4813,-0.4792,-0.4792,-0.4791,-0.479,-0.4796,-0.4797,-0.4798,0,0,0,0,0,0,0,0,0,0,0,0,0,-0.4786,-0.4786,-0.4809,-0.4809,-0.4809,-0.4813,-0.4813,-0.4813,-0.4792,-0.4792,-0.4791,-0.479,-0.4796,-0.4797,-0.4798,0,0,0,0,0,0,0,0,0,0,0,0,0,-0.4793,-0.4786,-0.4809,-0.4799,-0.4798,-0.4813,-0.4813,-0.4813,-0.4792,-0.4792,-0.4791,-0.479,-0.4796,-0.4797,-0.4798,-0.4823,0,0,-0.4801,-0.4802,0,0,0,0,0,0,0,0,-0.4793,-0.4794,-0.48,-0.48,-0.4799,-0.4801,-0.4807,-0.4817,-0.4793,-0.4795,-0.479,-0.4789,-0.4799,-0.48,-0.4802,-0.4823,-0.4824,-0.4801,-0.4802,-0.4802,-0.4803,0,0,0,0,0,0,0,-0.4792,-0.4794,-0.4811,-0.4801,-0.48,-0.4795,-0.4795,-0.4809,-0.4802,-0.4794,-0.4793,-0.4794,-0.4798,-0.4801,-0.4802,-0.4824,-0.4801,-0.4802,-0.4803,-0.4803,-0.4869,-0.487,0,0,0,0,0,0,-0.4793,-0.4794,-0.4811,-0.4811,-0.4793,-0.4797,-0.4797,-0.4801,-0.4802,-0.4801,-0.4794,-0.4793,-0.48,-0.4801,-0.4803,-0.4834,-0.4802,-0.4803,-0.4804,-0.4868,-0.4869,-0.487,0,0,0,0,0,0,-0.4792,-0.4795,-0.481,-0.4802,-0.4804,-0.4798,-0.4803,-0.4802,-0.4805,-0.4802,-0.4801,-0.4799,-0.4799,-0.4801,-0.4819,-0.4834,-0.4804,-0.4805,-0.4866,-0.4868,-0.4869,-0.4895,0,0,0,0,0,0,-0.4792,-0.4795,-0.4803,-0.4802,-0.4804,-0.4825,-0.4804,-0.4803,-0.4807,-0.4805,-0.4805,-0.4805,-0.4799,-0.4817,-0.482,-0.4834,-0.4806,-0.4865,-0.4867,-0.4869,-0.4893,-0.4898,-0.4901,0,0,0,0,0,-0.4791,-0.481,-0.4804,-0.4806,-0.4815,-0.4826,-0.4827,-0.482,-0.4808,-0.4818,-0.4816,-0.4805,-0.4832,-0.4819,-0.4822,-0.4837,-0.4864,-0.4866,-0.4869,-0.4891,-0.4897,-0.4901,0,0,0,0,0,0,-0.4813,-0.481,-0.4802,-0.4821,-0.4824,-0.4823,-0.4834,-0.4825,-0.4832,-0.4829,-0.482,-0.4821,-0.484,-0.4841,-0.4827,-0.4863,-0.4846,-0.4849,-0.4862,-0.4867,-0.4871,-0.4871,-0.4807,0,0,0,0,0,-0.482,-0.4829,-0.4826,-0.4843,-0.4845,-0.4839,-0.4844,-0.4838,-0.4841,-0.4842,-0.4841,-0.4845,-0.4855,-0.4861,-0.4869,-0.4893,-0.4894,-0.4905,-0.491,-0.4913,-0.4916,-0.4931,-0.4936,-0.4878,-0.4878,-0.4878,0,0,-0.4834,-0.4834,-0.484,-0.4847,-0.4849,-0.486,-0.484,-0.4852,-0.486,-0.4844,-0.4861,-0.4861,-0.4865,-0.4886,-0.4895,-0.4887,-0.4933,-0.4916,-0.4919,-0.492,-0.4934,-0.4939,-0.4944,-0.488,-0.4879,-0.4879,0,0,-0.4866,-0.4866,-0.4881,-0.4883,-0.4886,-0.4883,-0.4887,-0.4887,-0.4886,-0.4903,-0.4892,-0.4902,-0.4918,-0.4922,-0.4926,-0.4962,-0.4953,-0.4965,-0.4987,-0.5002,-0.5007,-0.5011,-0.5025,-0.503,-0.4968,-0.4968,-0.4968,0,-0.4884,-0.4898,-0.489,-0.4903,-0.4908,-0.4894,-0.491,-0.4913,-0.4918,-0.4922,-0.4913,-0.4934,-0.4935,-0.4959,-0.4968,-0.4971,-0.4977,-0.4965,-0.5006,-0.501,-0.5014,-0.5028,-0.5033,-0.497,-0.497,-0.497,-0.4969,0,-0.4921,-0.4932,-0.4944,-0.495,-0.4956,-0.497,-0.4965,-0.4973,-0.4967,-0.4965,-0.4984,-0.4986,-0.4995,-0.5,-0.4994,-0.5024,-0.5019,-0.5008,-0.499,-0.5021,-0.5034,-0.5039,-0.4972,-0.4972,-0.4971,-0.4971,0,0,-0.4965,-0.4968,-0.4972,-0.4976,-0.4979,-0.4988,-0.5003,-0.5012,-0.5019,-0.5024,-0.5038,-0.5053,-0.5044,-0.5049,-0.5044,-0.5056,-0.5088,-0.5044,-0.5045,-0.5053,-0.5122,-0.513,-0.5136,-0.5082,-0.5083,-0.5083,-0.5122,0,-0.4997,-0.5022,-0.5016,-0.5041,-0.5052,-0.504,-0.5054,-0.5058,-0.5058,-0.5068,-0.5068,-0.5079,-0.5065,-0.5069,-0.5081,-0.5081,-0.5101,-0.5078,-0.5095,-0.5096,-0.5095,-0.5143,-0.5151,-0.5187,-0.5127,-0.5128,-0.5128,0,-0.5037,-0.5044,-0.5071,-0.5074,-0.5079,-0.5091,-0.51,-0.5109,-0.5115,-0.5114,-0.5121,-0.5114,-0.5131,-0.5114,-0.5138,-0.5122,-0.5129,-0.5131,-0.5132,-0.5134,-0.5114,-0.5147,-0.5199,-0.5204,-0.5136,-0.5135,-0.5135,0,-0.5068,-0.5084,-0.5103,-0.5106,-0.511,-0.5119,-0.5122,-0.5126,-0.5133,-0.5142,-0.5147,-0.5157,-0.5163,-0.5172,-0.517,-0.5157,-0.5195,-0.5177,-0.5196,-0.5196,-0.5204,-0.5204,-0.5259,-0.5208,-0.5208,-0.5208,-0.5208,0,-0.5105,-0.5122,-0.5117,-0.5128,-0.5148,-0.5142,-0.5161,-0.5163,-0.5167,-0.518,-0.5171,-0.5183,-0.5178,-0.5191,-0.5189,-0.521,-0.5213,-0.5213,-0.5213,-0.5215,-0.5215,-0.5219,-0.5217,-0.5209,-0.5209,-0.5209,-0.5208,0,-0.5142,-0.5139,-0.5159,-0.5162,-0.5163,-0.5178,-0.5181,-0.5193,-0.5192,-0.5208,-0.5212,-0.5212,-0.5226,-0.5224,-0.524,-0.5239,-0.5266,-0.5262,-0.5264,-0.5264,-0.5283,-0.5282,-0.5343,-0.5352,-0.5295,-0.5295,-0.5296,0,-0.5166,-0.5179,-0.5184,-0.5191,-0.5194,-0.5207,-0.5214,-0.5209,-0.5218,-0.5227,-0.5238,-0.5251,-0.5262,-0.5286,-0.5288,-0.5301,-0.5298,-0.5319,-0.53,-0.5302,-0.53,-0.5299,-0.5302,-0.5323,-0.5323,-0.5324,-0.5324,0,-0.5209,-0.5207,-0.5217,-0.5228,-0.5237,-0.5245,-0.5253,-0.526,-0.5257,-0.5267,-0.5281,-0.529,-0.5307,-0.5322,-0.5335,-0.5338,-0.5332,-0.533,-0.5336,-0.5338,-0.5339,-0.534,-0.5275,-0.5329,-0.5328,-0.5328,-0.5328,-0.5328,-0.524,-0.5252,-0.5258,-0.5271,-0.5276,-0.5284,-0.5295,-0.5297,-0.5309,-0.5322,-0.5319,-0.5337,-0.5345,-0.5361,-0.5367,-0.5381,-0.5374,-0.5381,-0.5383,-0.5385,-0.5388,-0.5336,-0.5384,-0.5384,-0.5383,-0.5383,-0.5383,0,-0.5284,-0.5287,-0.5299,-0.531,-0.5321,-0.5313,-0.5322,-0.5331,-0.5346,-0.5354,-0.5365,-0.5384,-0.5399,-0.5403,-0.5417,-0.5428,-0.5426,-0.5433,-0.5432,-0.5433,-0.5393,-0.5388,-0.5435,-0.5435,-0.5435,-0.5435,-0.5434,-0.5434,-0.5307,-0.5327,-0.5327,-0.5351,-0.5354,-0.5371,-0.5377,-0.5385,-0.5391,-0.5412,-0.5424,-0.5427,-0.5434,-0.5449,-0.5463,-0.5464,-0.5471,-0.5479,-0.5479,-0.5441,-0.5436,-0.5431,-0.5426,-0.548,-0.548,-0.5518,-0.5518,-0.5518]},{"header":{"parameterUnit":"m.s-1","parameterCategory":1,"la1":30.2991,"la2":30.254,"lo1":-89.0895,"lo2":-89.0444,"dy":0.0017,"dx":0.0017,"nx":28,"ny":28,"refTime":"2024-07-22T09:00:00:Z","depth":0,"parameterNumber":3,"parameterNumberName":"V-component_of_WINDS"},"data":[0,0,0,0,0,0,0,0,0,0,0,0,0,0,0,0,0,0,0,0,0,0,0,0,0,0,0,0,0,0,0,0,0,0,0,0,0,0,0,0,0,0,0,0,0,0,0,0,0,0,0,0,0,0,0,0,0,0,3.1081,3.108,0,3.0988,3.0987,3.0986,3.0976,3.0977,3.0978,3.0979,3.0878,3.0875,3.0871,0,0,0,0,0,0,0,0,0,0,0,0,0,3.1246,3.1243,3.1081,3.108,3.1079,3.0988,3.0987,3.0986,3.0976,3.0977,3.0979,3.098,3.0879,3.0875,3.0871,0,0,0,0,0,0,0,0,0,0,0,0,0,3.1166,3.1242,3.1082,3.1064,3.1061,3.0989,3.0987,3.0985,3.0976,3.0978,3.0979,3.098,3.0881,3.0876,3.087,3.0808,0,0,3.0854,3.0851,0,0,0,0,0,0,0,0,3.117,3.116,3.1067,3.1065,3.1062,3.0996,3.1008,3.0926,3.0976,3.1008,3.0979,3.0981,3.0916,3.0908,3.0887,3.0803,3.0799,3.0853,3.085,3.0848,3.0846,0,0,0,0,0,0,0,3.1176,3.1164,3.1044,3.1066,3.1062,3.1058,3.1049,3.0992,3.0955,3.1005,3.1005,3.0994,3.0914,3.0892,3.0884,3.0797,3.0853,3.0849,3.0845,3.0843,3.0657,3.0655,0,0,0,0,0,0,3.1186,3.1168,3.1047,3.1041,3.1121,3.1054,3.1043,3.1015,3.0955,3.0948,3.0993,3.0994,3.09,3.0891,3.0881,3.0803,3.0848,3.0843,3.084,3.0659,3.0657,3.0655,0,0,0,0,0,0,3.1189,3.1175,3.1051,3.1105,3.1089,3.105,3.1018,3.1013,3.099,3.0946,3.0939,3.0977,3.0901,3.0888,3.0826,3.0799,3.084,3.0835,3.0661,3.0658,3.0656,3.0648,0,0,0,0,0,0,3.1194,3.1176,3.1153,3.1104,3.1086,3.1,3.1017,3.101,3.0982,3.0982,3.0929,3.0922,3.0901,3.0834,3.0821,3.0793,3.0831,3.0663,3.066,3.0657,3.065,3.0645,3.0641,0,0,0,0,0,3.12,3.1153,3.1152,3.1137,3.1056,3.0998,3.0987,3.0966,3.0979,3.0955,3.0927,3.0923,3.0805,3.0828,3.0813,3.0783,3.0664,3.0661,3.0657,3.0652,3.0646,3.0641,0,0,0,0,0,0,3.1198,3.1147,3.1144,3.1081,3.1044,3.0997,3.0965,3.0961,3.0918,3.092,3.0894,3.0882,3.0821,3.0796,3.0823,3.0719,3.0736,3.0729,3.0738,3.0731,3.0727,3.0734,3.0827,0,0,0,0,0,3.1191,3.1149,3.1106,3.1054,3.1036,3.1004,3.0978,3.0965,3.0925,3.0909,3.0876,3.0836,3.0789,3.0759,3.0714,3.0647,3.0635,3.0619,3.0614,3.0611,3.0604,3.0566,3.0559,3.0642,3.0642,3.0642,0,0,3.1174,3.1141,3.1116,3.1053,3.1023,3.0979,3.0991,3.0944,3.091,3.0901,3.0841,3.0815,3.0769,3.0704,3.0674,3.0681,3.0579,3.0606,3.0603,3.0599,3.0562,3.0554,3.0547,3.064,3.064,3.0641,0,0,3.1121,3.1093,3.1046,3.1016,3.0972,3.0951,3.094,3.0893,3.0876,3.0816,3.0808,3.0767,3.0688,3.0656,3.0628,3.0565,3.0559,3.0551,3.0526,3.0489,3.0483,3.0477,3.0453,3.0445,3.0545,3.0545,3.0545,0,3.1105,3.1041,3.1022,3.0976,3.0948,3.094,3.0892,3.0863,3.0805,3.0785,3.0795,3.0696,3.0664,3.0591,3.0576,3.0555,3.054,3.0556,3.0486,3.0479,3.0473,3.0451,3.0442,3.0544,3.0544,3.0544,3.0544,0,3.1023,3.0979,3.0946,3.0893,3.0862,3.0814,3.0788,3.0758,3.0748,3.0726,3.0664,3.0626,3.0573,3.0555,3.0544,3.0481,3.0487,3.0491,3.0507,3.0465,3.0443,3.0434,3.0543,3.0543,3.0543,3.0543,0,0,3.0965,3.0904,3.0892,3.0868,3.0818,3.0782,3.0735,3.0685,3.0659,3.062,3.0578,3.0512,3.0517,3.0486,3.0471,3.044,3.0391,3.0448,3.0446,3.0438,3.0317,3.0314,3.0304,3.0388,3.0386,3.0385,3.0321,0,3.0906,3.0823,3.0806,3.0733,3.0691,3.0683,3.0642,3.0606,3.0584,3.0544,3.0519,3.0473,3.0482,3.0464,3.0432,3.0404,3.0366,3.0408,3.0347,3.0345,3.0358,3.0292,3.0288,3.023,3.0312,3.0311,3.031,0,3.0826,3.0787,3.0711,3.0667,3.0649,3.0612,3.0565,3.0528,3.0486,3.0473,3.044,3.0429,3.0378,3.0398,3.0326,3.0355,3.0329,3.0312,3.0309,3.0301,3.0324,3.0282,3.0211,3.0201,3.0296,3.0297,3.0298,0,3.079,3.0718,3.0663,3.0643,3.0591,3.0565,3.0542,3.0503,3.0474,3.0433,3.0414,3.0366,3.034,3.0303,3.0279,3.0296,3.0209,3.0227,3.0195,3.0195,3.0176,3.0177,3.0098,3.0161,3.0161,3.0161,3.0161,0,3.0725,3.0679,3.0647,3.0613,3.056,3.054,3.0488,3.0465,3.043,3.039,3.038,3.0343,3.0315,3.0273,3.0254,3.0197,3.0185,3.0172,3.0167,3.0172,3.0174,3.0154,3.0157,3.0159,3.0159,3.016,3.016,0,3.0676,3.0653,3.0592,3.0549,3.0537,3.05,3.0462,3.0428,3.0407,3.0357,3.0344,3.031,3.026,3.0234,3.0171,3.0159,3.0095,3.0092,3.0109,3.0107,3.0075,3.0078,2.998,2.9966,3.0039,3.0039,3.0038,0,3.0635,3.06,3.0553,3.0527,3.0504,3.0462,3.0433,3.0412,3.0382,3.0334,3.0305,3.0256,3.0215,3.0136,3.0104,3.0057,3.0053,3.0021,3.0045,3.0051,3.0051,3.0053,3.0049,3.0017,3.0016,3.0015,3.0015,0,3.0566,3.0557,3.0517,3.0473,3.044,3.0403,3.0368,3.0346,3.0319,3.0286,3.0236,3.0205,3.0142,3.0093,3.0043,3.0017,3.0011,3.0008,2.9998,3.0002,3.0013,3.0006,3.0096,3.001,3.0011,3.0011,3.0011,3.0011,3.0519,3.0487,3.045,3.0405,3.0377,3.0344,3.031,3.0286,3.0245,3.0193,3.0183,3.013,3.009,3.0023,2.9996,2.9953,2.9959,2.9944,2.9941,2.9937,2.9935,3.0021,2.9944,2.9944,2.9944,2.9944,2.9944,0,3.0448,3.0424,3.0384,3.0335,3.03,3.0301,3.0261,3.0231,3.0186,3.015,3.0111,3.0053,3.0006,2.9971,2.9922,2.9895,2.9891,2.9883,2.9884,2.9878,2.9933,2.9947,2.9887,2.9887,2.9887,2.9887,2.9887,2.9887,3.0407,3.0353,3.0339,3.0271,3.0247,3.0197,3.0174,3.0143,3.0114,3.0052,3.0013,2.9992,2.9956,2.9905,2.986,2.9851,2.9833,2.9825,2.9816,2.9868,2.9874,2.988,2.9892,2.9822,2.9822,2.9763,2.9763,2.9763]}]]